Location: Houhaj�rvi
(61.2833°N, 23.0000°E)
Time: 16:50:05
(UTC+00:00)

Cosmos 405 - Pass Details

Date: 27 February 2020
Orbit: 452 x 465 km, 81.3° (Epoch: 06 April)

Event Time Altitude Azimuth Distance (km) Brightness Sun altitude
Rises 17:09:21 0° 341° (NNW) 2,510 7.0 -10.8°
Reaches altitude 10° 17:11:27 10° 339° (NNW) 1,632 6.1 -11.0°
Maximum altitude 17:15:00 66° 257° (WSW) 516 3.4 -11.4°
Drops below altitude 10° 17:18:31 10° 175° (S) 1,624 5.6 -11.8°
Sets 17:20:36 0° 172° (S) 2,497 6.6 -12.1°
